User: anonymous   Login
Location: Newark
(25.0000°N, 73.5000°E)
Time: 00:39:32
(UTC+00:00)
Language:

Explorer 7 - Orbit

View from above orbital plane
View from above orbital plane
View from above satellite
View from above satellite

Ground track
Ground track

The orbit data is extracted from the following two-line orbital elements,

1 00022U 59009A   21211.47282817  .00000146  00000-0  33903-4 0  9996
2 00022  50.2851 346.9534 0138316  18.2004 342.3824 14.95635681531427
Epoch (UTC): 30 July 2021 11:20:52
Eccentricity: 0.0138316
inclination: 50.2851°
perigee height: 484 km
apogee height: 676 km
right ascension of ascending node: 346.9534°
argument of perigee: 18.2004°
revolutions per day: 14.95635681
mean anomaly at epoch: 342.3824°
orbit number at epoch: 53142

The dashed part of the orbit path shows where the satellite is in the earth's shadow,  

DLR